Time,TemperatureF,DewpointF,PressureIn,WindDirection,WindDirectionDegrees,WindSpeedMPH,WindSpeedGustMPH,Humidity,HourlyPrecipIn,Conditions,Clouds,dailyrainin,SoftwareType,DateUTC
2013-06-05 00:06:00,70.9,63.3,29.89,NNE,28,0.0,0.0,77,0.00,,CLR,0.00,VWS V14.01,2013-06-05 05:06:00,
2013-06-05 00:11:00,70.9,63.3,29.89,NNE,28,0.0,1.0,77,0.00,,CLR,0.00,VWS V14.01,2013-06-05 05:11:00,
2013-06-05 00:16:00,70.9,63.3,29.89,NNE,28,0.0,0.0,77,0.00,,CLR,0.00,VWS V14.01,2013-06-05 05:16:00,
2013-06-05 00:26:00,70.9,63.3,29.89,NNE,28,0.0,3.0,77,0.00,,CLR,0.00,VWS V14.01,2013-06-05 05:26:00,
2013-06-05 00:31:00,70.9,63.3,29.89,NNE,28,0.0,0.0,77,0.00,,CLR,0.00,VWS V14.01,2013-06-05 05:31:00,
2013-06-05 00:41:00,70.9,63.3,29.89,NNE,28,0.0,0.0,77,0.00,,CLR,0.00,VWS V14.01,2013-06-05 05:41:00,
2013-06-05 00:46:00,70.9,63.3,29.89,NNE,28,0.0,0.0,77,0.00,,CLR,0.00,VWS V14.01,2013-06-05 05:46:00,
2013-06-05 00:51:00,70.9,63.3,29.89,NNE,28,0.0,0.0,77,0.00,,CLR,0.00,VWS V14.01,2013-06-05 05:51:00,
2013-06-05 01:01:00,70.8,63.6,29.89,NNE,28,0.0,0.0,78,0.00,,CLR,0.00,VWS V14.01,2013-06-05 06:01:00,
2013-06-05 01:11:00,70.8,63.6,29.89,NNE,28,0.0,0.0,78,0.00,,CLR,0.00,VWS V14.01,2013-06-05 06:11:00,
2013-06-05 01:16:00,70.6,63.4,29.88,NNE,28,0.0,1.0,78,0.00,,CLR,0.00,VWS V14.01,2013-06-05 06:16:00,
2013-06-05 01:26:00,70.6,63.4,29.88,NNE,28,0.0,2.0,78,0.00,,CLR,0.00,VWS V14.01,2013-06-05 06:26:00,
2013-06-05 01:41:00,70.8,63.6,29.88,NNE,28,0.0,0.0,78,0.00,,CLR,0.00,VWS V14.01,2013-06-05 06:41:00,
2013-06-05 01:46:00,70.8,64.0,29.88,NNE,28,0.0,0.0,79,0.00,,CLR,0.00,VWS V14.01,2013-06-05 06:46:00,
2013-06-05 01:51:00,70.8,64.0,29.88,NNE,28,0.0,0.0,79,0.00,,BKN055,0.00,VWS V14.01,2013-06-05 06:51:00,
2013-06-05 02:01:00,70.6,63.8,29.88,NNE,28,0.0,0.0,79,0.00,,BKN055,0.00,VWS V14.01,2013-06-05 07:01:00,
2013-06-05 02:06:00,70.6,63.8,29.88,NNE,28,0.0,0.0,79,0.00,,BKN055,0.00,VWS V14.01,2013-06-05 07:06:00,
2013-06-05 02:16:00,70.4,63.6,29.87,NNE,28,0.0,0.0,79,0.00,,BKN055,0.00,VWS V14.01,2013-06-05 07:16:00,
2013-06-05 02:21:00,70.4,63.9,29.87,NNE,28,0.0,0.0,80,0.00,,BKN055,0.00,VWS V14.01,2013-06-05 07:21:00,
2013-06-05 02:26:00,70.3,63.8,29.87,NNE,28,0.0,1.0,80,0.00,,BKN055,0.00,VWS V14.01,2013-06-05 07:26:00,
2013-06-05 02:31:00,70.3,63.8,29.87,NNE,28,0.0,0.0,80,0.00,,BKN055,0.00,VWS V14.01,2013-06-05 07:31:00,
2013-06-05 02:36:00,70.3,63.8,29.87,NNE,28,0.0,0.0,80,0.00,,BKN055,0.00,VWS V14.01,2013-06-05 07:36:00,
2013-06-05 02:46:00,70.1,63.7,29.87,NNE,28,0.0,0.0,80,0.00,,BKN055,0.00,VWS V14.01,2013-06-05 07:46:00,
2013-06-05 02:51:00,69.9,63.5,29.87,NNE,28,0.0,0.0,80,0.00,,BKN060,0.00,VWS V14.01,2013-06-05 07:51:00,
2013-06-05 02:56:00,69.9,63.5,29.87,NNE,28,0.0,0.0,80,0.00,,BKN060,0.00,VWS V14.01,2013-06-05 07:56:00,
2013-06-05 03:06:00,69.8,63.7,29.87,NNE,28,0.0,0.0,81,0.00,,BKN060,0.00,VWS V14.01,2013-06-05 08:06:00,
2013-06-05 03:16:00,69.6,63.9,29.87,NNE,28,0.0,2.0,82,0.00,,BKN060,0.00,VWS V14.01,2013-06-05 08:16:00,
2013-06-05 03:26:00,69.6,63.9,29.87,NNE,28,0.0,0.0,82,0.00,,BKN060,0.00,VWS V14.01,2013-06-05 08:26:00,
2013-06-05 03:31:00,69.4,63.7,29.87,NNE,28,0.0,0.0,82,0.00,,BKN060,0.00,VWS V14.01,2013-06-05 08:31:00,
2013-06-05 03:41:00,69.3,63.6,29.87,NNE,28,0.0,2.0,82,0.00,,BKN060,0.00,VWS V14.01,2013-06-05 08:41:00,
2013-06-05 03:46:00,68.9,63.5,29.87,NNE,28,3.0,4.0,83,0.00,,BKN060,0.00,VWS V14.01,2013-06-05 08:46:00,
2013-06-05 03:56:00,68.4,63.4,29.87,NNE,28,3.0,4.0,84,0.00,,SCT060,0.00,VWS V14.01,2013-06-05 08:56:00,
2013-06-05 04:01:00,68.3,63.3,29.87,NNE,25,3.0,4.0,84,0.00,,SCT060,0.00,VWS V14.01,2013-06-05 09:01:00,
2013-06-05 04:06:00,68.1,62.8,29.87,NNE,21,3.0,4.0,83,0.00,,SCT060,0.00,VWS V14.01,2013-06-05 09:06:00,
2013-06-05 04:11:00,68.1,62.8,29.87,North,360,3.0,4.0,83,0.00,,SCT060,0.00,VWS V14.01,2013-06-05 09:11:00,
2013-06-05 04:21:00,67.9,62.9,29.87,North,9,2.0,3.0,84,0.00,,SCT060,0.00,VWS V14.01,2013-06-05 09:21:00,
2013-06-05 04:26:00,67.8,62.8,29.87,North,9,3.0,5.0,84,0.00,,SCT060,0.00,VWS V14.01,2013-06-05 09:26:00,
2013-06-05 04:31:00,67.8,62.8,29.87,North,9,2.0,4.0,84,0.00,,SCT060,0.00,VWS V14.01,2013-06-05 09:31:00,
2013-06-05 04:36:00,67.6,62.6,29.87,North,9,3.0,4.0,84,0.00,,BKN060,0.00,VWS V14.01,2013-06-05 09:36:00,
2013-06-05 04:46:00,67.6,62.9,29.87,North,9,2.0,4.0,85,0.00,,BKN060,0.00,VWS V14.01,2013-06-05 09:46:00,
2013-06-05 04:56:00,67.4,62.7,29.87,North,9,0.0,4.0,85,0.00,,BKN060,0.00,VWS V14.01,2013-06-05 09:56:00,
2013-06-05 05:06:00,67.4,62.7,29.87,North,9,0.0,2.0,85,0.00,,BKN060,0.00,VWS V14.01,2013-06-05 10:06:00,
2013-06-05 05:11:00,67.3,62.6,29.87,North,9,2.0,3.0,85,0.00,,BKN060,0.00,VWS V14.01,2013-06-05 10:11:00,
2013-06-05 05:21:00,67.1,62.8,29.87,North,9,1.0,4.0,86,0.00,,BKN060,0.00,VWS V14.01,2013-06-05 10:21:00,
2013-06-05 05:31:00,66.9,62.6,29.87,North,9,2.0,4.0,86,0.00,,BKN060,0.00,VWS V14.01,2013-06-05 10:31:00,
2013-06-05 05:41:00,66.9,62.6,29.87,North,9,1.0,4.0,86,0.00,,BKN060,0.00,VWS V14.01,2013-06-05 10:41:00,
2013-06-05 05:46:00,66.8,62.5,29.87,North,9,0.0,3.0,86,0.00,,BKN060,0.00,VWS V14.01,2013-06-05 10:46:00,
2013-06-05 05:56:00,66.8,62.5,29.87,North,9,1.0,1.0,86,0.00,,BKN060,0.00,VWS V14.01,2013-06-05 10:56:00,
2013-06-05 06:01:00,66.8,62.5,29.87,North,9,2.0,5.0,86,0.00,,BKN060,0.00,VWS V14.01,2013-06-05 11:01:00,
2013-06-05 06:11:00,66.6,62.0,29.87,North,9,2.0,4.0,85,0.00,,BKN060,0.00,VWS V14.01,2013-06-05 11:11:00,
2013-06-05 06:16:00,66.6,62.0,29.87,North,9,3.0,3.0,85,0.00,,BKN060,0.00,VWS V14.01,2013-06-05 11:16:00,
2013-06-05 06:26:00,66.6,62.0,29.87,North,9,0.0,5.0,85,0.00,,BKN060,0.00,VWS V14.01,2013-06-05 11:26:00,
2013-06-05 06:36:00,66.8,62.2,29.87,North,5,3.0,5.0,85,0.00,,BKN060,0.00,VWS V14.01,2013-06-05 11:36:00,
2013-06-05 06:46:00,66.9,62.2,29.87,North,9,1.0,6.0,85,0.00,,BKN060,0.00,VWS V14.01,2013-06-05 11:46:00,
2013-06-05 06:56:00,67.3,62.3,29.87,North,360,2.0,7.0,84,0.00,,CLR,0.00,VWS V14.01,2013-06-05 11:56:00,
2013-06-05 07:01:00,67.6,62.6,29.87,North,360,2.0,6.0,84,0.00,,CLR,0.00,VWS V14.01,2013-06-05 12:01:00,
2013-06-05 07:06:00,67.8,62.5,29.87,North,360,1.0,5.0,83,0.00,,CLR,0.00,VWS V14.01,2013-06-05 12:06:00,
2013-06-05 07:16:00,68.4,62.7,29.87,North,9,4.0,6.0,82,0.00,,CLR,0.00,VWS V14.01,2013-06-05 12:16:00,
2013-06-05 07:26:00,68.9,62.8,29.87,North,355,3.0,6.0,81,0.00,,CLR,0.00,VWS V14.01,2013-06-05 12:26:00,
2013-06-05 07:31:00,69.3,63.2,29.86,NNE,17,3.0,5.0,81,0.00,,CLR,0.00,VWS V14.01,2013-06-05 12:31:00,
2013-06-05 07:41:00,69.8,63.4,29.86,North,11,2.0,6.0,80,0.00,,CLR,0.00,VWS V14.01,2013-06-05 12:41:00,
2013-06-05 07:46:00,70.1,63.7,29.86,NNE,28,0.0,4.0,80,0.00,,CLR,0.00,VWS V14.01,2013-06-05 12:46:00,
2013-06-05 07:51:00,70.6,63.8,29.86,NE,40,0.0,5.0,79,0.00,,CLR,0.00,VWS V14.01,2013-06-05 12:51:00,
2013-06-05 08:01:00,71.3,63.7,29.86,North,355,5.0,5.0,77,0.00,,CLR,0.00,VWS V14.01,2013-06-05 13:01:00,
2013-06-05 08:11:00,72.1,63.8,29.86,ENE,65,0.0,5.0,75,0.00,,CLR,0.00,VWS V14.01,2013-06-05 13:11:00,
2013-06-05 08:16:00,72.3,63.6,29.87,NNE,14,3.0,5.0,74,0.00,,CLR,0.00,VWS V14.01,2013-06-05 13:16:00,
2013-06-05 08:21:00,72.7,63.9,29.87,NNE,14,1.0,5.0,74,0.00,,SCT055,0.00,VWS V14.01,2013-06-05 13:21:00,
2013-06-05 08:31:00,73.2,64.0,29.88,NNE,16,2.0,5.0,73,0.00,,SCT055,0.00,VWS V14.01,2013-06-05 13:31:00,
2013-06-05 08:46:00,74.4,64.0,29.87,NE,45,0.0,5.0,70,0.00,,SCT055,0.00,VWS V14.01,2013-06-05 13:46:00,
2013-06-05 08:51:00,74.9,64.1,29.87,ENE,76,3.0,5.0,69,0.00,,CLR,0.00,VWS V14.01,2013-06-05 13:51:00,
2013-06-05 08:56:00,75.3,63.2,29.87,East,87,2.0,7.0,66,0.00,,CLR,0.00,VWS V14.01,2013-06-05 13:56:00,
2013-06-05 09:06:00,76.1,63.0,29.87,SE,126,2.0,5.0,64,0.00,,CLR,0.00,VWS V14.01,2013-06-05 14:06:00,
2013-06-05 09:16:00,76.5,63.0,29.88,East,92,3.0,5.0,63,0.00,,CLR,0.00,VWS V14.01,2013-06-05 14:16:00,
2013-06-05 09:21:00,76.7,63.6,29.88,East,98,0.0,5.0,64,0.00,,CLR,0.00,VWS V14.01,2013-06-05 14:21:00,
2013-06-05 09:31:00,77.7,63.7,29.89,East,96,0.0,5.0,62,0.00,,CLR,0.00,VWS V14.01,2013-06-05 14:31:00,
2013-06-05 09:36:00,77.9,63.4,29.89,East,96,0.0,3.0,61,0.00,,CLR,0.00,VWS V14.01,2013-06-05 14:36:00,
2013-06-05 09:41:00,78.1,64.0,29.89,East,96,0.0,0.0,62,0.00,,CLR,0.00,VWS V14.01,2013-06-05 14:41:00,
2013-06-05 09:46:00,78.3,63.3,29.88,East,97,2.0,5.0,60,0.00,,CLR,0.00,VWS V14.01,2013-06-05 14:46:00,
2013-06-05 09:56:00,78.3,64.2,29.88,ESE,113,1.0,7.0,62,0.00,,CLR,0.00,VWS V14.01,2013-06-05 14:56:00,
2013-06-05 10:01:00,78.5,64.4,29.87,ENE,65,2.0,3.0,62,0.00,,CLR,0.00,VWS V14.01,2013-06-05 15:01:00,
2013-06-05 10:06:00,79.0,64.4,29.87,ESE,105,2.0,5.0,61,0.00,,CLR,0.00,VWS V14.01,2013-06-05 15:06:00,
2013-06-05 10:11:00,79.2,63.7,29.87,SE,124,3.0,5.0,59,0.00,,CLR,0.00,VWS V14.01,2013-06-05 15:11:00,
2013-06-05 10:16:00,79.2,63.7,29.87,SE,129,2.0,4.0,59,0.00,,CLR,0.00,VWS V14.01,2013-06-05 15:16:00,
2013-06-05 10:21:00,79.0,63.9,29.87,SE,146,0.0,4.0,60,0.00,,CLR,0.00,VWS V14.01,2013-06-05 15:21:00,
2013-06-05 10:26:00,79.4,62.9,29.87,ESE,123,0.0,4.0,57,0.00,,CLR,0.00,VWS V14.01,2013-06-05 15:26:00,
2013-06-05 10:36:00,79.4,62.3,29.87,ESE,114,0.0,4.0,56,0.00,,CLR,0.00,VWS V14.01,2013-06-05 15:36:00,
2013-06-05 10:46:00,80.5,63.9,29.87,ESE,107,0.0,5.0,57,0.00,,CLR,0.00,VWS V14.01,2013-06-05 15:46:00,
2013-06-05 10:51:00,80.7,64.1,29.87,SE,134,2.0,4.0,57,0.00,,CLR,0.00,VWS V14.01,2013-06-05 15:51:00,
2013-06-05 11:01:00,81.4,63.2,29.87,East,94,5.0,6.0,54,0.00,,CLR,0.00,VWS V14.01,2013-06-05 16:01:00,
2013-06-05 11:06:00,81.4,62.6,29.87,ESE,114,4.0,8.0,53,0.00,,CLR,0.00,VWS V14.01,2013-06-05 16:06:00,
2013-06-05 11:16:00,81.6,62.8,29.86,ESE,122,0.0,3.0,53,0.00,,CLR,0.00,VWS V14.01,2013-06-05 16:16:00,
2013-06-05 11:21:00,81.8,64.1,29.86,ESE,113,0.0,5.0,55,0.00,,CLR,0.00,VWS V14.01,2013-06-05 16:21:00,
2013-06-05 11:31:00,83.4,64.0,29.86,East,92,2.0,5.0,52,0.00,,CLR,0.00,VWS V14.01,2013-06-05 16:31:00,
2013-06-05 11:41:00,82.6,63.2,29.86,ESE,118,2.0,4.0,52,0.00,,CLR,0.00,VWS V14.01,2013-06-05 16:41:00,
2013-06-05 11:56:00,82.6,62.7,29.85,East,93,0.0,6.0,51,0.00,,CLR,0.00,VWS V14.01,2013-06-05 16:56:00,
2013-06-05 12:01:00,82.4,61.9,29.85,ESE,121,2.0,5.0,50,0.00,,CLR,0.00,VWS V14.01,2013-06-05 17:01:00,
2013-06-05 12:11:00,82.4,61.9,29.85,SE,128,0.0,3.0,50,0.00,,CLR,0.00,VWS V14.01,2013-06-05 17:11:00,
2013-06-05 12:26:00,83.6,63.0,29.85,ENE,71,3.0,5.0,50,0.00,,CLR,0.00,VWS V14.01,2013-06-05 17:26:00,
2013-06-05 12:31:00,83.8,63.8,29.85,ENE,67,0.0,3.0,51,0.00,,CLR,0.00,VWS V14.01,2013-06-05 17:31:00,
2013-06-05 12:36:00,83.6,63.0,29.85,SSE,168,0.0,3.0,50,0.00,,CLR,0.00,VWS V14.01,2013-06-05 17:36:00,
2013-06-05 12:41:00,83.4,63.4,29.85,South,191,2.0,4.0,51,0.00,,CLR,0.00,VWS V14.01,2013-06-05 17:41:00,
2013-06-05 12:46:00,83.8,63.2,29.84,SSW,192,0.0,2.0,50,0.00,,CLR,0.00,VWS V14.01,2013-06-05 17:46:00,
2013-06-05 12:56:00,83.4,63.4,29.84,SW,236,0.0,5.0,51,0.00,,FEW038,0.00,VWS V14.01,2013-06-05 17:56:00,
2013-06-05 13:01:00,83.2,62.7,29.84,West,265,1.0,4.0,50,0.00,,FEW038,0.00,VWS V14.01,2013-06-05 18:01:00,
2013-06-05 13:06:00,83.2,63.2,29.84,WNW,284,0.0,4.0,51,0.00,,FEW038,0.00,VWS V14.01,2013-06-05 18:06:00,
2013-06-05 13:11:00,83.0,62.5,29.84,West,262,0.0,5.0,50,0.00,,FEW038,0.00,VWS V14.01,2013-06-05 18:11:00,
2013-06-05 13:16:00,84.0,62.8,29.83,West,261,1.0,3.0,49,0.00,,FEW038,0.00,VWS V14.01,2013-06-05 18:16:00,
2013-06-05 13:26:00,84.3,62.5,29.83,West,261,0.0,0.0,48,0.00,,FEW038,0.00,VWS V14.01,2013-06-05 18:26:00,
2013-06-05 13:36:00,83.8,63.8,29.82,WSW,257,0.0,4.0,51,0.00,,FEW038,0.00,VWS V14.01,2013-06-05 18:36:00,
2013-06-05 13:41:00,83.8,63.8,29.82,SSE,153,3.0,4.0,51,0.00,,FEW038,0.00,VWS V14.01,2013-06-05 18:41:00,
2013-06-05 13:46:00,83.8,62.6,29.81,SSE,158,0.0,4.0,49,0.00,,FEW038,0.00,VWS V14.01,2013-06-05 18:46:00,
2013-06-05 13:56:00,83.8,62.6,29.81,NE,35,1.0,5.0,49,0.00,,BKN110,0.00,VWS V14.01,2013-06-05 18:56:00,
2013-06-05 14:01:00,84.3,62.5,29.80,NE,35,0.0,3.0,48,0.00,,BKN110,0.00,VWS V14.01,2013-06-05 19:01:00,
2013-06-05 14:06:00,84.5,62.1,29.80,NE,35,0.0,3.0,47,0.00,,BKN110,0.00,VWS V14.01,2013-06-05 19:06:00,
2013-06-05 14:16:00,85.1,62.6,29.79,NNW,344,2.0,5.0,47,0.00,,BKN110,0.00,VWS V14.01,2013-06-05 19:16:00,
2013-06-05 14:26:00,84.9,63.0,29.79,NNW,331,3.0,4.0,48,0.00,,BKN110,0.00,VWS V14.01,2013-06-05 19:26:00,
2013-06-05 14:31:00,84.5,62.7,29.78,NW,323,1.0,4.0,48,0.00,,BKN110,0.00,VWS V14.01,2013-06-05 19:31:00,
2013-06-05 14:36:00,85.1,64.4,29.78,West,261,5.0,6.0,50,0.00,,BKN110,0.00,VWS V14.01,2013-06-05 19:36:00,
2013-06-05 14:41:00,84.9,63.0,29.78,NW,326,0.0,5.0,48,0.00,,BKN110,0.00,VWS V14.01,2013-06-05 19:41:00,
2013-06-05 14:51:00,84.7,62.9,29.78,SE,146,4.0,4.0,48,0.00,,SCT046,0.00,VWS V14.01,2013-06-05 19:51:00,
2013-06-05 14:56:00,84.7,64.0,29.78,South,170,3.0,5.0,50,0.00,,SCT046,0.00,VWS V14.01,2013-06-05 19:56:00,
2013-06-05 15:06:00,85.3,62.8,29.77,South,186,0.0,5.0,47,0.00,,SCT046,0.00,VWS V14.01,2013-06-05 20:06:00,
2013-06-05 15:11:00,84.9,62.4,29.77,SSE,154,0.0,3.0,47,0.00,,SCT046,0.00,VWS V14.01,2013-06-05 20:11:00,
2013-06-05 15:16:00,85.1,61.4,29.76,ENE,71,0.0,8.0,45,0.00,,SCT046,0.00,VWS V14.01,2013-06-05 20:16:00,
2013-06-05 15:26:00,85.7,62.6,29.76,East,86,0.0,6.0,46,0.00,,SCT046,0.00,VWS V14.01,2013-06-05 20:26:00,
2013-06-05 15:31:00,85.5,61.8,29.76,South,178,1.0,4.0,45,0.00,,SCT046,0.00,VWS V14.01,2013-06-05 20:31:00,
2013-06-05 15:36:00,85.5,61.8,29.76,SE,146,0.0,4.0,45,0.00,,SCT046,0.00,VWS V14.01,2013-06-05 20:36:00,
2013-06-05 15:46:00,85.5,61.8,29.75,SW,217,1.0,5.0,45,0.00,,SCT046,0.00,VWS V14.01,2013-06-05 20:46:00,
2013-06-05 15:56:00,85.7,63.2,29.75,ESE,115,1.0,4.0,47,0.00,,SCT050,0.00,VWS V14.01,2013-06-05 20:56:00,
2013-06-05 16:01:00,85.7,63.2,29.75,ESE,107,1.0,9.0,47,0.00,,SCT050,0.00,VWS V14.01,2013-06-05 21:01:00,
2013-06-05 16:06:00,85.9,62.7,29.75,SE,127,0.0,3.0,46,0.00,,SCT050,0.00,VWS V14.01,2013-06-05 21:06:00,
2013-06-05 16:16:00,86.1,62.3,29.74,ESE,117,3.0,9.0,45,0.00,,SCT050,0.00,VWS V14.01,2013-06-05 21:16:00,
2013-06-05 16:26:00,85.1,62.0,29.74,ESE,102,0.0,2.0,46,0.00,,SCT050,0.00,VWS V14.01,2013-06-05 21:26:00,
2013-06-05 16:36:00,85.7,62.6,29.74,SE,139,2.0,4.0,46,0.00,,SCT050,0.00,VWS V14.01,2013-06-05 21:36:00,
2013-06-05 16:41:00,85.5,62.4,29.74,SE,139,0.0,5.0,46,0.00,,SCT050,0.00,VWS V14.01,2013-06-05 21:41:00,
2013-06-05 16:46:00,85.1,62.0,29.74,WSW,258,2.0,2.0,46,0.00,,SCT050,0.00,VWS V14.01,2013-06-05 21:46:00,
2013-06-05 16:56:00,85.3,62.2,29.74,SE,134,1.0,5.0,46,0.00,,SCT047,0.00,VWS V14.01,2013-06-05 21:56:00,
2013-06-05 17:06:00,85.5,62.4,29.74,East,96,0.0,0.0,46,0.00,,SCT047,0.00,VWS V14.01,2013-06-05 22:06:00,
2013-06-05 17:16:00,86.3,61.8,29.73,SE,142,0.0,3.0,44,0.00,,SCT047,0.00,VWS V14.01,2013-06-05 22:16:00,
2013-06-05 17:21:00,86.5,62.7,29.73,SE,134,0.0,4.0,45,0.00,,SCT047,0.00,VWS V14.01,2013-06-05 22:21:00,
2013-06-05 17:26:00,86.3,62.5,29.73,ESE,123,4.0,4.0,45,0.00,,SCT047,0.00,VWS V14.01,2013-06-05 22:26:00,
2013-06-05 17:36:00,85.9,62.1,29.72,ESE,108,0.0,2.0,45,0.00,,SCT047,0.00,VWS V14.01,2013-06-05 22:36:00,
2013-06-05 17:46:00,86.1,63.5,29.71,ESE,103,2.0,5.0,47,0.00,,SCT047,0.00,VWS V14.01,2013-06-05 22:46:00,
2013-06-05 17:56:00,86.1,62.9,29.71,East,84,3.0,3.0,46,0.00,,SCT120,0.00,VWS V14.01,2013-06-05 22:56:00,
2013-06-05 18:11:00,85.1,63.2,29.71,ESE,104,0.0,6.0,48,0.00,,SCT120,0.00,VWS V14.01,2013-06-05 23:11:00,
2013-06-05 18:21:00,85.1,63.8,29.71,ENE,78,3.0,3.0,49,0.00,,SCT120,0.00,VWS V14.01,2013-06-05 23:21:00,
2013-06-05 18:26:00,85.1,63.8,29.71,ENE,78,0.0,4.0,49,0.00,,SCT120,0.00,VWS V14.01,2013-06-05 23:26:00,
2013-06-05 18:36:00,85.5,64.2,29.71,ESE,104,1.0,4.0,49,0.00,,SCT120,0.00,VWS V14.01,2013-06-05 23:36:00,
2013-06-05 18:41:00,85.7,64.9,29.71,ESE,109,0.0,3.0,50,0.00,,SCT120,0.00,VWS V14.01,2013-06-05 23:41:00,
2013-06-05 18:51:00,85.3,64.6,29.71,East,97,0.0,5.0,50,0.00,,CLR,0.00,VWS V14.01,2013-06-05 23:51:00,
2013-06-05 19:01:00,85.1,65.0,29.71,East,98,3.0,6.0,51,0.00,,CLR,0.00,VWS V14.01,2013-06-06 00:01:00,
2013-06-05 19:06:00,84.9,65.3,29.71,ESE,105,0.0,4.0,52,0.00,,CLR,0.00,VWS V14.01,2013-06-06 00:06:00,
2013-06-05 19:11:00,84.7,65.1,29.71,ESE,105,0.0,0.0,52,0.00,,CLR,0.00,VWS V14.01,2013-06-06 00:11:00,
2013-06-05 19:21:00,84.3,65.3,29.71,ESE,105,0.0,2.0,53,0.00,,CLR,0.00,VWS V14.01,2013-06-06 00:21:00,
2013-06-05 19:31:00,84.3,65.9,29.71,ESE,105,0.0,0.0,54,0.00,,CLR,0.00,VWS V14.01,2013-06-06 00:31:00,
2013-06-05 19:41:00,84.0,65.6,29.71,ESE,105,0.0,1.0,54,0.00,,CLR,0.00,VWS V14.01,2013-06-06 00:41:00,
2013-06-05 19:51:00,83.8,65.9,29.71,ESE,105,0.0,0.0,55,0.00,,CLR,0.00,VWS V14.01,2013-06-06 00:51:00,
2013-06-05 19:56:00,83.8,65.4,29.71,ESE,105,0.0,0.0,54,0.00,,CLR,0.00,VWS V14.01,2013-06-06 00:56:00,
2013-06-05 20:11:00,83.6,66.3,29.71,ESE,105,0.0,0.0,56,0.00,,CLR,0.00,VWS V14.01,2013-06-06 01:11:00,
2013-06-05 20:21:00,83.2,66.4,29.70,ESE,105,0.0,0.0,57,0.00,,CLR,0.00,VWS V14.01,2013-06-06 01:21:00,
2013-06-05 20:26:00,83.0,66.7,29.70,ESE,105,0.0,0.0,58,0.00,,CLR,0.00,VWS V14.01,2013-06-06 01:26:00,
2013-06-05 20:36:00,82.8,66.5,29.70,ESE,105,0.0,0.0,58,0.00,,-RA,0.00,VWS V14.01,2013-06-06 01:36:00,
2013-06-05 20:41:00,82.6,66.3,29.70,ESE,105,0.0,0.0,58,0.00,,-RA,0.00,VWS V14.01,2013-06-06 01:41:00,
2013-06-05 20:51:00,82.2,66.5,29.71,ESE,105,0.0,0.0,59,0.00,,-RA,0.00,VWS V14.01,2013-06-06 01:51:00,
2013-06-05 20:56:00,81.8,67.5,29.71,ESE,105,0.0,1.0,62,0.00,,-RA,0.00,VWS V14.01,2013-06-06 01:56:00,
2013-06-05 21:01:00,81.4,67.6,29.70,ESE,105,0.0,0.0,63,0.00,,-RA,0.00,VWS V14.01,2013-06-06 02:01:00,
2013-06-05 21:06:00,81.4,67.1,29.70,ESE,105,0.0,0.0,62,0.00,,-RA,0.00,VWS V14.01,2013-06-06 02:06:00,
2013-06-05 21:16:00,81.2,67.9,29.70,ESE,105,0.0,1.0,64,0.00,,-RA,0.00,VWS V14.01,2013-06-06 02:16:00,
2013-06-05 21:21:00,81.1,68.7,29.70,ESE,105,0.0,2.0,66,0.00,,-RA,0.00,VWS V14.01,2013-06-06 02:21:00,
2013-06-05 21:31:00,80.5,68.1,29.72,ESE,105,0.0,0.0,66,0.00,,-RA,0.00,VWS V14.01,2013-06-06 02:31:00,
2013-06-05 21:36:00,80.1,68.2,29.72,ESE,105,4.0,4.0,67,0.00,,-RA,0.00,VWS V14.01,2013-06-06 02:36:00,
2013-06-05 21:46:00,79.6,68.1,29.71,East,80,0.0,3.0,68,0.00,,-RA,0.00,VWS V14.01,2013-06-06 02:46:00,
2013-06-05 21:51:00,79.4,68.8,29.71,SSE,148,8.0,8.0,70,0.00,,-RA,0.00,VWS V14.01,2013-06-06 02:51:00,
2013-06-05 22:01:00,76.3,67.4,29.72,SSE,155,6.0,14.0,74,0.00,,-RA,0.00,VWS V14.01,2013-06-06 03:01:00,
2013-06-05 22:11:00,73.9,67.7,29.72,SSW,213,3.0,9.0,81,0.01,,-RA,0.01,VWS V14.01,2013-06-06 03:11:00,
2013-06-05 22:16:00,73.3,67.8,29.75,WSW,242,5.0,10.0,83,0.02,,-RA,0.02,VWS V14.01,2013-06-06 03:16:00,
2013-06-05 22:26:00,71.3,66.9,29.75,NW,322,6.0,16.0,86,0.08,,RA,0.08,VWS V14.01,2013-06-06 03:26:00,
2013-06-05 22:36:00,70.1,66.7,29.75,NNW,333,2.0,9.0,89,0.09,,RA,0.09,VWS V14.01,2013-06-06 03:36:00,
2013-06-05 22:41:00,70.1,66.7,29.75,NNW,336,1.0,5.0,89,0.09,,RA,0.09,VWS V14.01,2013-06-06 03:41:00,
2013-06-05 22:51:00,69.8,66.4,29.76,NW,319,5.0,6.0,89,0.09,,-RA,0.09,VWS V14.01,2013-06-06 03:51:00,
2013-06-05 22:56:00,69.6,66.2,29.76,NNW,342,2.0,5.0,89,0.09,,-RA,0.09,VWS V14.01,2013-06-06 03:56:00,
2013-06-05 23:01:00,69.4,66.0,29.76,NW,325,0.0,6.0,89,0.09,,-RA,0.09,VWS V14.01,2013-06-06 04:01:00,
2013-06-05 23:06:00,69.4,66.0,29.76,NNW,340,3.0,6.0,89,0.09,,-RA,0.09,VWS V14.01,2013-06-06 04:06:00,
2013-06-05 23:11:00,69.3,65.6,29.76,North,355,3.0,12.0,88,0.09,,-RA,0.09,VWS V14.01,2013-06-06 04:11:00,
2013-06-05 23:16:00,69.3,65.9,29.75,NNW,332,1.0,8.0,89,0.08,,-RA,0.09,VWS V14.01,2013-06-06 04:16:00,
2013-06-05 23:21:00,69.3,65.6,29.75,NNW,342,1.0,7.0,88,0.07,,-RA,0.09,VWS V14.01,2013-06-06 04:21:00,
2013-06-05 23:26:00,69.1,65.4,29.75,North,360,5.0,8.0,88,0.04,,-RA,0.09,VWS V14.01,2013-06-06 04:26:00,
2013-06-05 23:36:00,69.3,65.6,29.74,North,9,4.0,7.0,88,0.00,,-RA,0.09,VWS V14.01,2013-06-06 04:36:00,
2013-06-05 23:41:00,69.3,65.6,29.74,North,355,4.0,8.0,88,0.00,,-RA,0.09,VWS V14.01,2013-06-06 04:41:00,
2013-06-05 23:46:00,69.1,65.4,29.74,North,10,3.0,7.0,88,0.00,,-RA,0.09,VWS V14.01,2013-06-06 04:46:00,
2013-06-05 23:56:00,69.1,65.7,29.74,North,5,2.0,5.0,89,0.00,,BKN110,0.09,VWS V14.01,2013-06-06 04:56:00,